Time,TemperatureF,DewpointF,PressureIn,WindDirection,WindDirectionDegrees,WindSpeedMPH,WindSpeedGustMPH,Humidity,HourlyPrecipIn,Conditions,Clouds,dailyrainin,SoftwareType,DateUTC
2013-06-19 00:02:00,62.0,59.0,-100.00,SE,145,1.0,2.0,89,-99.99,,,-99.99,,2013-06-19 04:02:00,
2013-06-19 00:12:00,62.0,59.0,-100.00,North,350,2.0,2.0,90,-99.99,,,-99.99,,2013-06-19 04:12:00,
2013-06-19 00:23:00,62.0,59.0,-100.00,North,350,2.0,2.0,90,-99.99,,,-99.99,,2013-06-19 04:23:00,
2013-06-19 00:33:00,61.0,58.0,-100.00,NNW,340,1.0,2.0,90,-99.99,,,-99.99,,2013-06-19 04:33:00,
2013-06-19 00:43:00,61.0,58.0,-100.00,NNW,340,1.0,2.0,90,-99.99,,,-99.99,,2013-06-19 04:43:00,
2013-06-19 00:53:00,61.0,58.0,-100.00,NE,45,1.0,1.0,89,-99.99,,,-99.99,,2013-06-19 04:53:00,
2013-06-19 01:01:00,61.0,58.0,-100.00,South,190,0.0,1.0,90,-99.99,,,-99.99,,2013-06-19 05:01:00,
2013-06-19 01:11:00,61.0,58.0,-100.00,SE,135,2.0,2.0,90,-99.99,,,-99.99,,2013-06-19 05:11:00,
2013-06-19 01:23:00,61.0,58.0,-100.00,North,355,1.0,2.0,90,-99.99,,,-99.99,,2013-06-19 05:23:00,
2013-06-19 01:32:00,60.0,57.0,-100.00,North,0,1.0,2.0,90,-99.99,,,-99.99,,2013-06-19 05:32:00,
2013-06-19 01:43:00,58.0,55.0,-100.00,North,0,1.0,2.0,91,-99.99,,,-99.99,,2013-06-19 05:43:00,
2013-06-19 01:52:00,58.0,55.0,-100.00,North,350,1.0,2.0,91,-99.99,,,-99.99,,2013-06-19 05:52:00,
2013-06-19 02:02:00,58.0,55.0,-100.00,ESE,120,1.0,2.0,91,-99.99,,,-99.99,,2013-06-19 06:02:00,
2013-06-19 02:11:00,58.0,55.0,-100.00,North,10,0.0,2.0,91,-99.99,,,-99.99,,2013-06-19 06:11:00,
2013-06-19 02:22:00,58.0,55.0,-100.00,NNE,15,1.0,2.0,90,-99.99,,,-99.99,,2013-06-19 06:22:00,
2013-06-19 02:34:00,57.0,55.0,-100.00,ENE,60,1.0,1.0,91,-99.99,,,-99.99,,2013-06-19 06:34:00,
2013-06-19 02:43:00,57.0,55.0,-100.00,North,0,0.0,-999.0,91,-99.99,,,-99.99,,2013-06-19 06:43:00,
2013-06-19 02:52:00,57.0,55.0,-100.00,North,0,0.0,-999.0,91,-99.99,,,-99.99,,2013-06-19 06:52:00,
2013-06-19 03:01:00,57.0,54.0,-100.00,North,355,1.0,-999.0,90,-99.99,,,-99.99,,2013-06-19 07:01:00,
2013-06-19 03:12:00,57.0,55.0,-100.00,ENE,75,0.0,-999.0,91,-99.99,,,-99.99,,2013-06-19 07:12:00,
2013-06-19 03:22:00,57.0,55.0,-100.00,East,90,1.0,-999.0,91,-99.99,,,-99.99,,2013-06-19 07:22:00,
2013-06-19 03:33:00,57.0,54.0,-100.00,NNE,25,0.0,-999.0,90,-99.99,,,-99.99,,2013-06-19 07:33:00,
2013-06-19 03:43:00,57.0,55.0,-100.00,North,10,0.0,-999.0,91,-99.99,,,-99.99,,2013-06-19 07:43:00,
2013-06-19 03:53:00,57.0,55.0,-100.00,North,10,0.0,-999.0,91,-99.99,,,-99.99,,2013-06-19 07:53:00,
2013-06-19 04:02:00,57.0,55.0,-100.00,NNW,330,1.0,-999.0,91,-99.99,,,-99.99,,2013-06-19 08:02:00,
2013-06-19 04:11:00,57.0,55.0,-100.00,NNW,340,1.0,2.0,91,-99.99,,,-99.99,,2013-06-19 08:11:00,
2013-06-19 04:22:00,57.0,54.0,-100.00,NNW,345,1.0,-999.0,91,-99.99,,,-99.99,,2013-06-19 08:22:00,
2013-06-19 04:43:00,57.0,55.0,-100.00,North,355,2.0,-999.0,92,-99.99,,,-99.99,,2013-06-19 08:43:00,
2013-06-19 05:02:00,57.0,54.0,-100.00,NNW,330,1.0,-999.0,91,-99.99,,,-99.99,,2013-06-19 09:02:00,
2013-06-19 05:22:00,57.0,54.0,-100.00,NNE,25,1.0,-999.0,92,-99.99,,,-99.99,,2013-06-19 09:22:00,
2013-06-19 06:42:00,56.0,54.0,-100.00,NNW,335,2.0,8.0,92,-99.99,,,-99.99,,2013-06-19 10:42:00,
2013-06-19 07:02:00,57.0,54.0,-100.00,NNW,335,2.0,7.0,91,-99.99,,,-99.99,,2013-06-19 11:02:00,
2013-06-19 07:12:00,57.0,55.0,-100.00,North,10,2.0,7.0,91,-99.99,,,-99.99,,2013-06-19 11:12:00,
2013-06-19 07:54:00,58.0,55.0,-100.00,NNW,345,5.0,9.0,90,-99.99,,,-99.99,,2013-06-19 11:54:00,
2013-06-19 08:02:00,59.0,55.0,-100.00,North,0,2.0,7.0,88,-99.99,,,-99.99,,2013-06-19 12:02:00,
2013-06-19 08:22:00,59.0,54.0,-100.00,North,0,5.0,8.0,82,-99.99,,,-99.99,,2013-06-19 12:22:00,
2013-06-19 08:44:00,61.0,53.0,-100.00,NNW,340,3.0,10.0,76,-99.99,,,-99.99,,2013-06-19 12:44:00,
2013-06-19 08:53:00,62.0,54.0,-100.00,NNW,340,1.0,7.0,75,-99.99,,,-99.99,,2013-06-19 12:53:00,
2013-06-19 09:02:00,62.0,54.0,-100.00,NNW,340,1.0,7.0,75,-99.99,,,-99.99,,2013-06-19 13:02:00,
2013-06-19 09:12:00,62.0,53.0,-100.00,North,0,2.0,6.0,72,-99.99,,,-99.99,,2013-06-19 13:12:00,
2013-06-19 09:22:00,62.0,53.0,-100.00,North,5,2.0,7.0,72,-99.99,,,-99.99,,2013-06-19 13:22:00,
2013-06-19 09:33:00,62.0,52.0,-100.00,NW,320,3.0,7.0,70,-99.99,,,-99.99,,2013-06-19 13:33:00,
2013-06-19 09:43:00,64.0,51.0,-100.00,West,270,3.0,6.0,63,-99.99,,,-99.99,,2013-06-19 13:43:00,
2013-06-19 09:53:00,64.0,50.0,-100.00,NNW,345,2.0,10.0,60,-99.99,,,-99.99,,2013-06-19 13:53:00,
2013-06-19 10:02:00,65.0,50.0,-100.00,NNW,330,3.0,10.0,57,-99.99,,,-99.99,,2013-06-19 14:02:00,
2013-06-19 10:12:00,65.0,50.0,-100.00,NNW,330,3.0,10.0,57,-99.99,,,-99.99,,2013-06-19 14:12:00,
2013-06-19 10:22:00,65.0,48.0,-100.00,NW,325,6.0,9.0,54,-99.99,,,-99.99,,2013-06-19 14:22:00,
2013-06-19 10:33:00,66.0,48.0,-100.00,NNW,340,5.0,7.0,52,-99.99,,,-99.99,,2013-06-19 14:33:00,
2013-06-19 10:44:00,67.0,47.0,-100.00,WNW,295,2.0,9.0,49,-99.99,,,-99.99,,2013-06-19 14:44:00,
2013-06-19 10:53:00,68.0,48.0,-100.00,East,90,2.0,7.0,50,-99.99,,,-99.99,,2013-06-19 14:53:00,
2013-06-19 11:02:00,68.0,46.0,-100.00,NNW,340,7.0,10.0,46,-99.99,,,-99.99,,2013-06-19 15:02:00,
2013-06-19 11:11:00,67.0,45.0,-100.00,NNW,335,5.0,10.0,44,-99.99,,,-99.99,,2013-06-19 15:11:00,
2013-06-19 11:22:00,67.0,45.0,-100.00,NNW,335,5.0,10.0,44,-99.99,,,-99.99,,2013-06-19 15:22:00,
2013-06-19 11:33:00,68.0,46.0,-100.00,NNW,335,5.0,10.0,44,-99.99,,,-99.99,,2013-06-19 15:33:00,
2013-06-19 11:43:00,69.0,45.0,-100.00,WNW,295,2.0,8.0,42,-99.99,,,-99.99,,2013-06-19 15:43:00,
2013-06-19 11:53:00,69.0,44.0,-100.00,NNW,335,5.0,9.0,40,-99.99,,,-99.99,,2013-06-19 15:53:00,
2013-06-19 12:02:00,69.0,42.0,-100.00,NNW,335,6.0,10.0,37,-99.99,,,-99.99,,2013-06-19 16:02:00,
2013-06-19 12:11:00,69.0,42.0,-100.00,NNW,335,6.0,10.0,37,-99.99,,,-99.99,,2013-06-19 16:11:00,
2013-06-19 12:22:00,70.0,41.0,-100.00,East,85,1.0,8.0,36,-99.99,,,-99.99,,2013-06-19 16:22:00,
2013-06-19 12:34:00,70.0,41.0,-100.00,East,85,1.0,8.0,36,-99.99,,,-99.99,,2013-06-19 16:34:00,
2013-06-19 12:43:00,71.0,43.0,-100.00,NNE,12,7.0,10.0,36,-99.99,,,-99.99,,2013-06-19 16:43:00,
2013-06-19 12:52:00,71.0,43.0,-100.00,NNE,12,7.0,10.0,36,-99.99,,,-99.99,,2013-06-19 16:52:00,
2013-06-19 13:02:00,71.0,43.0,-100.00,NNE,12,7.0,8.0,36,-99.99,,,-99.99,,2013-06-19 17:02:00,
2013-06-19 13:12:00,71.0,43.0,-100.00,NNE,12,7.0,9.0,36,-99.99,,,-99.99,,2013-06-19 17:12:00,
2013-06-19 13:22:00,71.0,43.0,-100.00,NNE,12,7.0,9.0,36,-99.99,,,-99.99,,2013-06-19 17:22:00,
2013-06-19 13:34:00,71.0,43.0,-100.00,NNW,342,10.0,10.0,36,-99.99,,,-99.99,,2013-06-19 17:34:00,
2013-06-19 13:43:00,73.0,44.0,-100.00,NNW,342,10.0,12.0,36,-99.99,,,-99.99,,2013-06-19 17:43:00,
2013-06-19 13:53:00,73.0,44.0,-100.00,NNW,342,10.0,10.0,36,-99.99,,,-99.99,,2013-06-19 17:53:00,
2013-06-19 14:02:00,73.0,44.0,-100.00,NNW,342,10.0,10.0,36,-99.99,,,-99.99,,2013-06-19 18:02:00,
2013-06-19 14:12:00,73.0,44.0,-100.00,NNW,342,10.0,10.0,36,-99.99,,,-99.99,,2013-06-19 18:12:00,
2013-06-19 14:24:00,73.0,44.0,-100.00,NNW,338,8.0,14.0,36,-99.99,,,-99.99,,2013-06-19 18:24:00,
2013-06-19 14:33:00,74.0,45.0,-100.00,NNW,338,8.0,12.0,36,-99.99,,,-99.99,,2013-06-19 18:33:00,
2013-06-19 14:44:00,74.0,45.0,-100.00,NNW,338,8.0,12.0,36,-99.99,,,-99.99,,2013-06-19 18:44:00,
2013-06-19 14:53:00,74.0,45.0,-100.00,NNW,338,8.0,12.0,36,-99.99,,,-99.99,,2013-06-19 18:53:00,
2013-06-19 15:01:00,74.0,45.0,-100.00,NNW,338,8.0,8.0,36,-99.99,,,-99.99,,2013-06-19 19:01:00,
2013-06-19 15:12:00,74.0,45.0,-100.00,NNW,338,8.0,8.0,36,-99.99,,,-99.99,,2013-06-19 19:12:00,
2013-06-19 15:22:00,74.0,45.0,-100.00,North,0,7.0,10.0,36,-99.99,,,-99.99,,2013-06-19 19:22:00,
2013-06-19 15:32:00,74.0,45.0,-100.00,North,4,7.0,9.0,36,-99.99,,,-99.99,,2013-06-19 19:32:00,
2013-06-19 15:43:00,74.0,45.0,-100.00,North,4,7.0,10.0,36,-99.99,,,-99.99,,2013-06-19 19:43:00,
2013-06-19 15:53:00,74.0,45.0,-100.00,North,4,7.0,9.0,36,-99.99,,,-99.99,,2013-06-19 19:53:00,
2013-06-19 16:02:00,74.0,45.0,-100.00,North,4,7.0,8.0,36,-99.99,,,-99.99,,2013-06-19 20:02:00,
2013-06-19 16:12:00,74.0,45.0,-100.00,North,4,7.0,8.0,36,-99.99,,,-99.99,,2013-06-19 20:12:00,
2013-06-19 16:22:00,74.0,45.0,-100.00,North,0,7.0,7.0,36,-99.99,,,-99.99,,2013-06-19 20:22:00,
2013-06-19 16:33:00,73.0,44.0,-100.00,NNE,16,7.0,8.0,36,-99.99,,,-99.99,,2013-06-19 20:33:00,
2013-06-19 16:42:00,73.0,44.0,-100.00,NNE,16,7.0,10.0,36,-99.99,,,-99.99,,2013-06-19 20:42:00,
2013-06-19 17:02:00,73.0,44.0,-100.00,NNE,16,7.0,10.0,36,-99.99,,,-99.99,,2013-06-19 21:02:00,
2013-06-19 17:12:00,73.0,44.0,-100.00,NNE,16,7.0,10.0,36,-99.99,,,-99.99,,2013-06-19 21:12:00,
2013-06-19 17:22:00,73.0,44.0,-100.00,North,4,8.0,10.0,36,-99.99,,,-99.99,,2013-06-19 21:22:00,
2013-06-19 17:33:00,72.0,44.0,-100.00,NNE,24,7.0,7.0,36,-99.99,,,-99.99,,2013-06-19 21:33:00,
2013-06-19 17:44:00,72.0,44.0,-100.00,NNE,24,7.0,9.0,36,-99.99,,,-99.99,,2013-06-19 21:44:00,
2013-06-19 17:52:00,72.0,44.0,-100.00,NNE,24,7.0,9.0,36,-99.99,,,-99.99,,2013-06-19 21:52:00,
2013-06-19 18:02:00,72.0,44.0,-100.00,NNE,24,7.0,8.0,36,-99.99,,,-99.99,,2013-06-19 22:02:00,
2013-06-19 18:11:00,72.0,44.0,-100.00,NNE,24,7.0,8.0,36,-99.99,,,-99.99,,2013-06-19 22:11:00,
2013-06-19 18:22:00,72.0,44.0,-100.00,NNW,348,5.0,8.0,36,-99.99,,,-99.99,,2013-06-19 22:22:00,
2013-06-19 18:34:00,70.0,42.0,-100.00,WSW,246,3.0,7.0,36,-99.99,,,-99.99,,2013-06-19 22:34:00,
2013-06-19 18:53:00,70.0,35.0,-100.00,SSE,150,9.0,14.0,28,-99.99,,,-99.99,,2013-06-19 22:53:00,
2013-06-19 19:12:00,70.0,35.0,-100.00,South,170,9.0,10.0,28,-99.99,,,-99.99,,2013-06-19 23:12:00,
2013-06-19 19:34:00,68.0,34.0,-100.00,ESE,120,7.0,7.0,28,-99.99,,,-99.99,,2013-06-19 23:34:00,
2013-06-19 19:52:00,68.0,34.0,-100.00,ESE,120,7.0,7.0,28,-99.99,,,-99.99,,2013-06-19 23:52:00,
2013-06-19 20:12:00,68.0,34.0,-100.00,SE,135,7.0,8.0,28,-99.99,,,-99.99,,2013-06-20 00:12:00,
2013-06-19 20:52:00,66.0,43.0,-100.00,NE,45,1.0,2.0,44,-99.99,,,-99.99,,2013-06-20 00:52:00,
2013-06-19 21:02:00,66.0,43.0,-100.00,NE,45,1.0,2.0,44,-99.99,,,-99.99,,2013-06-20 01:02:00,
2013-06-19 21:12:00,66.0,43.0,-100.00,NE,55,1.0,2.0,44,-99.99,,,-99.99,,2013-06-20 01:12:00,
2013-06-19 21:22:00,66.0,43.0,-100.00,SSE,150,1.0,2.0,44,-99.99,,,-99.99,,2013-06-20 01:22:00,
2013-06-19 21:52:00,61.0,39.0,-100.00,ENE,68,3.0,3.0,44,-99.99,,,-99.99,,2013-06-20 01:52:00,
2013-06-19 22:02:00,61.0,39.0,-100.00,ENE,68,3.0,3.0,44,-99.99,,,-99.99,,2013-06-20 02:02:00,
2013-06-19 22:12:00,61.0,39.0,-100.00,ENE,68,3.0,3.0,44,-99.99,,,-99.99,,2013-06-20 02:12:00,
2013-06-19 22:43:00,58.0,36.0,-100.00,SE,130,2.0,2.0,44,-99.99,,,-99.99,,2013-06-20 02:43:00,
2013-06-19 23:02:00,58.0,36.0,-100.00,SE,130,2.0,3.0,44,-99.99,,,-99.99,,2013-06-20 03:02:00,
2013-06-19 23:33:00,56.0,34.0,-100.00,SW,228,3.0,3.0,44,-99.99,,,-99.99,,2013-06-20 03:33:00,